Starlink 33592

operational
NORAD ID: 62765 Int'l Des: 2025-015 Owner: SPXS Country: US Constellation: starlink
LEOCIRCULAR

关于 Starlink 33592

正在加载描述...

实时位置

正在加载3D地球...

即将过境

高度历史

Altitude vs Time

uPlot chart will show altitude changes over time

两行轨道根数

1 62765U 25015H 25307.65822698 .00022441 00000-0 76735-3 0 9996
2 62765 53.1586 187.9653 0001636 76.9992 283.1191 15.30207120 45053
Epoch: Nov 3, 2025 • Age: 19 hours

当前状态

高度 474.8 km
速度 7.63 km/s
星下点 18.73°N, 5.65°W
发射日期 Jan 21, 2025
运行时间 0.7 years
类型 internet

技术详情

分类 Payload
质量 575.00 kg
干质量 530.00 kg
总质量 575.00 kg
长度 0.30 m
直径 4.10 m
跨度 29.00 m
形状 Box + pan
制造商 SPXS
平台类型 Starlink V2MO
阶段状态 In Orbit
所有者/国家 SPXS/US

大型星座

Loading constellations...